Theta_e
348 347 348 349 351 351 351 350 351 351 351 352 354 354 355 354 353 353 354 356 356 356 356 356 356 355 355 357 355 355 355 354 356 356 355 356 358 358 358 358 358 357
348 347 347 349 350 351 350 350 351 351 350 351 351 352 352 352 353 352 353 354 356 356 356 355 356 355 356 358 356 356 356 354 356 358 356 358 359 359 358 358 358 358
348 348 348 349 351 351 351 350 349 350 350 350 350 351 352 352 353 353 353 354 355 357 356 355 356 356 356 358 356 357 358 356 358 359 358 358 359 359 358 358 358 358
349 349 350 351 352 352 351 350 349 350 350 350 351 351 352 352 353 353 352 351 352 354 355 354 355 356 357 356 356 357 358 357 358 359 357 358 358 358 358 358 358 358
348 349 350 351 351 351 350 350 351 351 351 351 352 352 351 350 351 352 352 351 352 353 354 355 355 355 356 355 355 357 358 358 358 357 357 358 359 358 358 358 358 358
348 347 348 349 350 349 350 351 352 353 353 353 353 352 351 350 350 352 353 353 354 355 356 357 356 356 356 355 354 356 357 358 360 359 358 360 360 359 358 358 358 359
349 347 347 349 350 350 350 351 352 353 354 354 353 351 350 350 350 350 351 353 355 356 357 357 356 355 356 356 355 355 356 356 358 358 358 360 360 359 359 359 359 358
351 350 348 348 351 351 351 352 353 353 353 353 353 351 350 351 351 352 352 352 355 356 356 357 356 355 356 357 357 357 356 357 358 357 358 359 359 359 359 359 358 358
352 352 350 349 350 352 352 353 353 353 353 353 353 353 352 352 353 354 354 352 354 356 355 356 356 356 357 357 356 356 356 358 358 359 360 360 360 360 359 359 359 358
353 352 352 351 351 352 352 352 353 353 353 352 352 353 353 353 353 354 354 353 355 356 355 355 355 355 356 356 355 355 356 357 358 358 359 360 361 361 360 360 360 360
354 353 353 353 352 352 352 352 352 353 353 352 352 352 353 354 354 354 354 353 355 357 357 356 355 355 355 356 356 356 355 357 357 358 358 358 359 359 359 360 360 360
354 354 354 353 353 353 352 352 352 353 353 353 352 353 354 354 355 355 356 355 355 356 357 356 355 355 355 355 356 356 356 357 358 358 358 358 359 359 359 360 360 360
354 355 354 354 354 354 353 353 353 353 353 353 353 353 353 353 353 355 357 357 355 355 355 355 355 355 355 354 355 355 355 356 358 359 359 359 359 359 360 360 360 359
355 355 355 355 355 354 353 354 354 354 353 353 353 353 352 352 353 354 356 356 356 355 355 356 355 355 355 355 355 355 356 357 358 359 359 359 359 359 359 359 359 359
356 357 356 355 354 353 352 353 355 355 354 354 353 352 352 354 354 355 355 357 357 356 355 355 355 354 354 354 354 355 356 357 357 356 355 355 355 356 357 357 357 357
356 356 356 354 353 353 353 354 355 356 356 355 355 355 355 356 356 355 356 356 356 356 355 355 355 354 353 353 353 353 354 354 355 354 353 352 351 353 355 355 355 355
354 354 354 354 353 354 353 354 355 356 356 356 356 357 356 356 356 356 356 356 356 356 356 356 355 354 353 353 352 353 353 353 353 352 352 351 351 352 354 356 355 355
354 354 354 353 353 354 354 355 354 355 355 355 356 356 356 356 356 356 356 356 356 356 355 356 356 354 353 353 352 352 352 353 352 352 352 352 353 353 354 355 355 355
354 354 353 353 352 353 354 354 354 354 354 354 355 355 355 355 354 354 354 354 354 354 354 355 355 354 352 352 352 352 352 351 352 353 353 353 354 354 354 354 354 354
349 348 349 350 351 350 350 351 352 352 351 351 353 353 353 353 352 351 351 352 351 352 352 352 353 352 350 350 351 351 351 351 351 352 353 353 353 353 354 355 355 355
346 346 346 348 349 348 347 347 348 349 350 351 352 353 352 352 352 351 350 350 350 349 349 349 349 349 349 350 350 350 350 349 349 350 351 352 352 352 352 353 353 354
345 346 347 347 348 347 346 346 347 349 350 350 350 351 351 351 352 350 348 350 350 348 348 346 346 347 347 346 346 346 347 347 347 348 349 350 351 351 351 351 351 350
346 347 347 347 347 347 346 346 346 348 348 346 345 347 348 350 349 346 345 348 349 347 347 347 346 346 346 345 345 344 344 345 347 348 349 349 350 351 351 351 350 348
345 345 345 345 345 344 343 343 344 345 346 345 344 345 345 346 346 345 344 346 346 345 345 345 345 345 345 344 345 344 343 344 346 347 348 349 349 349 350 350 350 349
342 342 342 342 342 342 341 342 344 344 345 344 343 344 344 345 346 345 343 344 343 341 341 341 340 340 341 341 342 342 342 343 344 345 346 347 347 347 347 348 349 349
336 337 338 338 339 340 340 341 343 344 344 343 342 343 343 344 344 342 339 339 338 338 337 336 336 336 336 337 338 339 340 341 341 342 342 342 343 343 344 344 345 346
Wind_Speed
23 23 20 18 16 15 14 15 15 15 15 13 12 12 12 12 11 11 12 12 11 10 10 9 8 8 9 9 8 7 7 6 6 6 6 5 5 5 5 4 4 4
25 25 23 21 18 16 15 14 14 14 15 15 14 13 13 12 11 11 12 13 12 11 10 10 9 9 9 9 9 8 8 7 6 6 6 6 6 6 6 5 5 5
27 27 25 22 20 18 16 14 14 14 15 15 15 14 13 13 12 12 12 13 13 12 11 10 10 10 10 10 10 9 8 8 7 6 6 7 6 6 6 6 6 6
28 28 26 22 19 18 17 15 14 14 15 15 14 13 13 12 13 13 12 13 13 13 12 11 11 10 10 10 11 10 9 9 8 8 8 8 8 8 7 7 7 7
28 27 26 23 22 21 19 16 15 15 15 15 14 13 12 12 12 12 12 12 12 12 12 12 12 11 11 11 11 11 10 9 9 10 10 9 8 8 8 7 7 7
27 27 27 26 25 24 20 17 16 15 15 14 14 13 12 11 11 11 11 11 11 11 11 11 11 11 11 11 12 12 12 10 9 10 10 9 9 8 8 7 8 8
27 26 27 26 25 24 21 18 18 17 16 15 14 14 13 12 12 12 12 12 11 11 11 11 12 12 11 12 12 13 12 12 11 11 11 10 9 9 9 8 8 8
25 24 26 25 23 21 20 19 18 18 18 16 15 15 14 13 12 12 13 12 12 12 12 13 13 13 12 12 12 12 12 11 11 12 12 11 10 10 10 9 9 9
22 21 23 24 22 20 20 19 18 18 18 18 15 14 14 14 13 13 13 13 12 13 13 13 13 13 12 12 13 13 13 12 11 11 11 11 11 10 10 9 9 9
20 20 20 21 21 20 20 20 18 18 18 19 17 15 14 15 14 14 14 13 13 13 13 13 13 13 13 13 14 14 14 13 12 12 12 12 11 11 10 10 9 10
19 19 19 19 20 20 20 20 19 17 18 19 18 17 15 14 15 15 15 15 14 13 13 13 13 13 13 13 13 14 14 14 13 14 14 13 13 12 12 11 11 11
20 19 20 20 21 20 18 18 18 17 17 17 17 17 16 15 14 14 14 15 15 14 13 13 13 13 14 14 14 14 15 14 14 14 15 14 14 13 12 12 12 12
21 21 21 20 20 21 19 17 17 17 17 17 16 17 17 16 15 14 14 14 15 16 15 15 15 15 15 15 15 15 16 16 15 14 14 13 13 13 13 12 12 13
20 20 21 20 20 21 21 18 16 17 17 16 16 17 17 17 16 15 14 13 14 16 15 15 15 16 16 16 16 16 16 15 14 13 12 13 13 13 13 14 13 13
17 17 18 20 22 23 23 21 17 16 16 16 16 17 16 16 16 15 14 13 15 17 17 16 16 17 17 17 17 17 16 15 15 15 16 15 15 15 15 15 15 14
18 17 17 20 21 22 22 21 17 15 15 15 15 15 15 15 15 15 15 14 15 18 19 17 17 17 17 17 18 18 18 17 18 18 18 18 18 18 17 16 16 14
23 22 21 21 20 20 21 20 18 16 15 16 16 15 15 16 15 15 15 15 15 17 18 17 17 19 18 18 18 18 18 18 18 18 18 17 18 19 17 15 15 15
25 23 21 18 17 18 19 18 17 17 18 18 17 15 15 15 15 14 14 15 15 15 15 13 14 18 20 18 18 17 16 17 17 17 17 17 17 19 18 16 15 15
22 21 20 18 16 17 19 18 17 17 19 19 18 17 17 16 16 16 16 16 16 16 17 14 13 17 20 18 17 18 17 17 17 16 17 18 18 19 18 17 17 18
14 12 15 17 15 13 14 16 15 14 16 15 14 13 13 13 14 14 12 10 9 11 12 11 11 15 17 17 17 18 17 18 17 15 15 17 19 20 17 16 17 18
9 7 8 11 9 7 10 12 11 8 9 9 7 5 5 5 6 4 3 3 4 6 9 10 11 13 13 13 15 15 15 15 14 12 11 14 18 21 22 21 20 18
9 8 7 6 5 5 8 10 8 6 6 7 7 5 4 5 5 2 1 3 5 5 6 9 13 14 12 12 12 13 13 12 10 9 10 11 13 17 20 21 22 22
10 9 9 8 6 6 7 7 6 5 6 8 7 4 5 7 8 6 3 4 5 3 2 6 10 12 12 12 12 12 11 8 7 8 9 11 12 12 13 15 19 22
10 10 9 9 8 6 4 2 2 3 4 5 5 4 4 5 7 7 4 2 1 0 2 4 6 8 10 10 11 11 9 8 9 10 10 11 12 12 12 13 16 19
12 12 12 9 7 6 4 2 1 1 1 1 1 1 1 1 2 2 2 1 4 5 3 2 1 4 6 7 8 8 7 8 9 9 10 11 11 12 13 14 15 16
12 13 13 11 9 8 7 5 4 3 2 1 1 4 5 4 4 5 5 5 6 7 7 7 7 7 7 7 6 6 5 4 4 5 7 9 9 10 12 13 13 13
Wind_Direction
224 224 225 230 235 238 241 246 248 247 248 245 239 238 240 246 252 247 241 242 246 253 259 262 264 258 249 245 246 249 253 253 251 255 261 264 263 262 265 264 262 267
223 224 226 228 234 239 242 248 250 249 252 252 248 247 250 253 255 250 246 244 247 254 259 264 267 264 257 251 252 258 260 260 258 259 265 264 260 262 264 262 261 264
223 225 226 227 230 234 239 245 250 250 251 252 252 253 255 257 257 254 250 247 248 252 257 263 267 267 264 257 258 265 267 267 264 263 270 266 259 261 264 265 264 264
224 225 225 225 225 230 235 241 246 248 247 247 248 252 255 257 258 256 253 249 248 251 255 261 264 266 265 259 258 264 268 269 267 269 274 268 263 266 266 267 268 267
227 227 225 224 224 229 235 238 239 242 244 243 244 249 255 257 256 254 252 250 248 251 254 257 261 265 264 258 256 258 262 263 264 271 275 270 265 265 264 265 265 267
228 229 228 225 226 230 232 233 234 236 237 237 239 245 251 254 253 251 251 249 246 247 248 250 255 258 257 257 256 257 260 259 259 269 273 269 265 262 261 262 261 263
228 230 229 225 225 228 230 229 231 233 232 233 238 243 246 247 249 249 251 250 247 246 246 247 252 255 255 256 259 262 263 261 261 267 271 268 264 263 261 263 264 265
225 226 227 225 222 223 226 226 228 230 232 233 236 241 241 240 241 242 244 246 244 245 247 248 252 256 253 251 256 260 259 254 252 258 263 263 262 263 261 262 265 268
221 222 224 223 220 221 224 225 226 227 230 233 234 237 238 238 238 236 239 245 244 245 247 247 251 254 251 250 255 258 255 249 245 247 252 255 258 260 260 258 260 263
219 220 221 220 220 222 224 226 226 226 228 230 232 233 234 236 238 238 241 247 247 246 248 247 249 252 252 252 253 256 255 252 250 251 253 256 258 259 260 259 260 262
220 220 219 220 221 223 226 227 228 229 230 230 230 232 233 235 239 241 245 249 248 247 249 250 253 255 256 255 254 257 259 255 252 254 257 260 261 262 263 262 262 263
224 223 221 221 222 225 227 228 230 230 232 231 230 231 233 237 240 240 244 249 252 253 254 257 260 261 262 262 258 257 259 258 252 252 256 259 259 260 260 260 261 263
223 224 226 223 222 225 226 227 229 230 230 230 229 229 234 240 242 241 242 249 257 262 265 267 268 267 267 267 265 264 264 262 256 252 253 255 257 257 256 256 257 259
222 224 227 225 224 227 229 227 228 230 230 228 227 229 234 237 239 240 242 244 252 261 269 273 273 272 270 269 269 267 263 260 257 258 260 262 264 264 262 260 258 256
221 221 225 229 231 234 236 234 231 231 231 230 231 232 235 236 237 240 243 244 249 257 265 269 272 273 273 272 269 264 259 257 259 263 265 266 268 269 267 267 265 261
222 223 228 234 237 241 242 239 233 230 231 233 234 236 237 239 242 246 247 247 249 255 262 267 271 273 273 274 271 266 264 263 264 266 267 268 269 269 268 268 267 265
226 228 231 233 236 241 244 243 239 235 236 238 240 242 244 246 249 252 253 253 253 258 263 265 270 276 280 281 278 274 269 266 267 268 269 268 267 265 264 265 266 266
225 225 225 226 230 233 233 237 242 243 245 247 246 247 249 250 251 251 254 257 258 260 262 263 268 277 282 282 279 275 269 265 264 266 267 266 264 262 261 261 262 263
225 220 216 216 225 232 230 231 237 245 251 253 252 253 253 252 253 254 256 259 260 260 261 260 263 272 278 278 276 273 268 263 261 261 264 265 265 266 265 262 263 265
231 224 218 216 219 233 242 238 238 248 258 261 260 259 257 254 254 255 258 264 275 282 282 276 265 266 272 276 275 273 271 267 262 260 263 264 266 268 266 263 265 268
233 230 227 222 216 231 254 251 243 243 256 259 250 245 263 277 274 265 258 270 290 305 314 313 295 281 277 277 277 276 275 272 268 266 267 268 271 274 273 269 269 271
210 208 207 215 215 216 238 247 239 211 214 235 232 210 216 253 262 255 292 294 284 281 294 297 293 291 292 292 293 294 294 291 286 281 278 276 278 281 280 278 278 278
194 192 180 181 188 187 199 222 231 220 225 248 258 238 214 240 261 275 296 310 306 310 296 276 282 292 299 303 307 310 315 316 308 294 285 281 282 283 283 282 281 281
165 160 150 156 166 171 182 210 266 266 247 249 259 253 240 270 298 304 303 301 283 193 236 254 272 291 300 306 309 313 320 314 300 294 290 286 287 286 284 282 282 283
120 117 114 120 127 124 126 127 120 133 148 201 283 27 87 1 359 348 329 37 92 103 105 107 34 340 331 329 324 325 332 317 301 300 298 295 298 296 292 290 290 289
96 99 98 97 97 103 109 109 109 114 116 136 105 102 109 111 99 92 82 71 75 80 79 73 60 40 26 19 12 12 17 356 328 321 314 311 315 314 309 305 301 295